{"data":{"norad_id":49437,"intl_designator":"2021-104AF","name":"STARLINK-3130","alt_names":[],"object_type":"PAYLOAD","status":"ACTIVE","operator":null,"country":"US","launch_date":"2021-11-13","launch_site_code":"AFETR","launch_vehicle":null,"mission":null,"orbit_class":"UNKNOWN","rcs_meters":null,"size_class":null,"mass_kg":null,"dimensions":null,"purposes":["comms"],"wikipedia_slug":null,"has_3d_model":false,"image_url":null,"decayed_at":null,"tle_current":{"epoch":"2026-05-24T22:30:17.733600Z","epoch_age_seconds":80510,"freshness":"FRESH","line1":"1 49437U 21104AF  26144.93770525  .00000394  00000+0  42823-4 0  9998","line2":"2 49437  53.2136 226.8306 0001227  95.6298 264.4834 15.08831699250421","mean_motion":15.08831699,"eccentricity":0.0001227,"inclination_deg":53.2136,"raan_deg":226.8306,"arg_perigee_deg":95.6298,"mean_anomaly_deg":264.4834,"bstar":4.2823e-5,"rev_number":25042,"period_min":95.438079737745,"perigee_km":538.91993487958,"apogee_km":540.61758895355,"semimajor_km":6917.9057619166,"source":"CELESTRAK","updated_at":"2026-05-25T13:38:16.800887Z"}}}